sat.trackr.live / text

‹ back to catalog

STARLINK-36599

NORAD 67638 · 2026-020X

PAYLOAD ACTIVE UNKNOWN

§ Identity

Operator
Country
US
Launch date
2026-01-30
Launch site
AFETR
Launch vehicle
Mass (kg)
RCS (m²)

Purposes: comms

External: N2YO · Heavens-Above · Gunter

§ Orbital elements

Epoch: 2026-09-19T22:02:09.565728Z

Period
94.27 min
Inclination
42.9948°
Eccentricity
0.0000972
Mean motion
15.27588299 rev/d
Perigee alt
482.4 km
Apogee alt
483.7 km
Semi-major
6,861.2 km
B*
3.6888e-4
RAAN
123.2813°
Arg perigee
235.4644°
Mean anomaly
124.6116°
Rev number
3,581

§ Raw data

STARLINK-365991 67638U 26020X   26262.91816627  .00009905  00000+0  36888-3 0  99962 67638  42.9948 123.2813 0000972 235.4644 124.6116 15.27588299 35818

JSON: /api/v1/satellites/67638 · /tle

For live sub-satellite position, see the globe view (requires WebGL).

§ Visibility from observer

Set your observer location to see the next 7 days of passes ≥ 10°. The values pass through the URL so the page stays shareable.

No JS? Fill the form by hand. The geolocation button needs JavaScript.